FW3072 Weather Reports


Display with metric or nautical units.
time (UTC)temp
F
wind
direction
speed
MPH
gust
MPH
rain 1hr
in
rain 24hr
in
rain mn
in
humidity
%
barometer
mb
20260901095202 70 360 0.0 0.0 0.00 0.52 0.04 96 1012.0
20260901094202 70 360 0.0 0.0 0.00 0.52 0.04 96 1012.1
20260901093202 70 360 0.0 0.0 0.00 0.52 0.04 96 1012.1
20260901092202 70 360 0.0 0.0 0.00 0.52 0.04 96 1012.1
20260901091203 70 360 0.0 0.0 0.00 0.52 0.04 96 1012.0
20260901090203 70 360 0.0 0.0 0.00 0.52 0.04 96 1012.1
20260901085203 69 360 0.0 0.0 0.02 0.52 0.04 96 1012.1
20260901084204 69 360 0.0 0.0 0.02 0.52 0.04 96 1011.9
20260901083205 69 360 0.0 0.0 0.02 0.52 0.04 96 1011.9
20260901082224 70 360 0.0 0.0 0.01 0.51 0.03 96 1012.0
20260901081223 70 360 0.0 0.0 0.01 0.51 0.03 96 1012.0
20260901080203 69 360 0.0 0.0 0.00 0.50 0.02 96 1012.2
20260901075202 69 360 0.0 0.0 0.02 0.50 0.02 96 1012.1
20260901074203 69 360 0.0 0.0 0.02 0.50 0.02 96 1012.2
20260901073224 69 360 0.0 0.0 0.00 0.49 0.00 96 1012.3
20260901072202 69 360 0.0 0.0 0.00 0.49 0.00 96 1012.4
20260901071203 69 360 0.0 0.0 0.00 0.49 0.00 96 1012.7
20260901070202 69 360 0.0 0.0 0.00 0.49 0.00 96 1012.6
20260901065203 69 360 0.0 0.0 0.00 0.50 0.00 96 1012.8
20260901064225 69 360 0.0 0.0 0.00 0.52 0.00 96 1012.9
20260901063203 69 360 0.0 0.0 0.00 0.54 0.00 96 1013.0
20260901062202 69 360 0.0 0.0 0.00 0.54 0.00 96 1013.2
20260901061203 69 360 0.0 0.0 0.00 0.55 0.00 96 1013.4
20260901060203 69 360 0.0 0.0 0.00 0.56 0.00 96 1013.5
20260901055203 69 360 0.0 0.0 0.00 0.57 0.00 96 1013.6
20260901054203 69 360 0.0 0.0 0.00 0.57 0.00 96 1013.7
20260901053202 69 360 0.0 0.0 0.00 0.57 0.00 96 1013.7
20260901052225 69 360 0.0 0.0 0.00 0.57 0.00 95 1013.8
20260901051202 69 360 0.0 0.0 0.00 0.57 0.00 95 1013.9
20260901050204 69 360 0.0 0.0 0.00 0.57 0.00 95 1014.0
20260901045202 69 360 0.0 0.0 0.00 0.57 0.00 95 1013.9
20260901043203 70 360 0.0 0.0 0.00 0.57 0.00 95 1014.5
20260901042202 69 360 0.0 0.0 0.00 0.58 0.00 95 1014.5
20260901041223 69 360 0.0 0.0 0.00 0.59 0.00 95 1014.6
20260901040202 69 360 0.0 0.0 0.00 0.59 0.00 95 1014.6
20260901035204 69 360 0.0 0.0 0.00 0.59 0.59 95 1014.6
20260901034202 69 360 0.0 0.0 0.00 0.59 0.59 95 1014.6
20260901033203 69 360 0.0 0.0 0.00 0.59 0.59 95 1014.7
20260901032223 69 360 0.0 0.0 0.00 0.59 0.59 95 1014.9
20260901031227 70 360 0.0 0.0 0.00 0.59 0.59 95 1014.7
20260901030202 70 360 0.0 0.0 0.00 0.59 0.59 95 1014.9
20260901025226 70 360 0.0 0.0 0.00 0.59 0.59 95 1015.1
20260901024205 70 360 0.0 0.0 0.00 0.59 0.59 95 1015.1
20260901023202 71 360 0.0 0.0 0.00 0.59 0.59 95 1015.1
20260901022223 71 360 0.0 0.0 0.00 0.59 0.59 95 1015.4
20260901021225 71 360 0.0 0.0 0.00 0.59 0.59 95 1015.5
20260901020223 71 360 0.0 0.0 0.00 0.59 0.59 95 1015.4
20260901015203 71 360 0.0 0.0 0.00 0.59 0.59 95 1015.4
20260901014204 71 360 0.0 0.0 0.00 0.59 0.59 95 1015.5
20260901013202 71 360 0.0 0.0 0.00 0.59 0.59 95 1015.5
20260901012224 71 360 0.0 0.0 0.00 0.59 0.59 95 1015.6
20260901011202 71 360 0.0 0.0 0.00 0.59 0.59 95 1015.7
20260901010203 71 360 0.0 0.0 0.00 0.59 0.59 95 1015.7
20260901005202 71 360 0.0 0.0 0.02 0.59 0.59 95 1015.4
20260901004203 71 360 0.0 1.0 0.02 0.59 0.59 95 1015.3
20260901003203 71 360 0.0 2.0 0.00 0.57 0.57 95 1015.3
20260901002202 72 360 0.0 0.0 0.00 0.57 0.57 95 1015.2
20260901001203 72 360 0.0 1.0 0.00 0.57 0.57 95 1015.2
20260901000203 72 360 0.0 2.0 0.00 0.57 0.57 95 1015.2
20260831234202 72 360 0.0 0.0 0.00 0.57 0.57 95 1015.2
20260831233203 72 360 0.0 0.0 0.00 0.57 0.57 95 1015.2
20260831232203 72 360 0.0 0.0 0.00 0.57 0.57 95 1015.2
20260831231202 72 360 0.0 0.0 0.00 0.58 0.57 95 1015.0
20260831230224 72 360 0.0 1.0 0.00 0.58 0.57 95 1015.2
20260831225203 73 359 0.0 1.0 0.00 0.58 0.57 95 1015.3
20260831224202 73 359 0.0 2.0 0.00 0.59 0.57 95 1015.4
20260831223203 73 359 2.0 4.0 0.00 0.59 0.57 95 1015.5
20260831222202 73 359 3.0 6.0 0.00 0.59 0.57 96 1015.5
20260831221203 73 359 0.0 4.0 0.00 0.60 0.57 96 1015.5
20260831220202 73 359 0.0 2.0 0.00 0.60 0.57 96 1015.7
20260831215203 73 360 0.0 6.0 0.00 0.60 0.57 95 1015.6
20260831214203 73 360 0.0 5.0 0.00 0.60 0.57 96 1015.7
20260831213248 73 359 2.0 4.0 0.00 0.60 0.57 96 1015.7
20260831212202 73 360 0.0 0.0 0.00 0.60 0.57 96 1015.6
20260831211202 72 360 0.0 0.0 0.00 0.60 0.57 95 1015.6
20260831210244 72 360 0.0 0.0 0.00 0.60 0.57 95 1015.4
20260831205203 72 360 0.0 0.0 0.00 0.60 0.57 96 1015.3
20260831204202 72 360 0.0 0.0 0.00 0.60 0.57 96 1015.4
20260831203204 72 360 0.0 0.0 0.00 0.60 0.57 96 1015.4
20260831202202 71 360 0.0 1.0 0.00 0.60 0.57 95 1015.5
20260831201203 71 360 0.0 0.0 0.00 0.60 0.57 95 1015.5
20260831200202 71 360 0.0 2.0 0.00 0.60 0.57 96 1015.5
20260831195203 71 360 0.0 0.0 0.01 0.60 0.57 96 1015.6
20260831194223 71 360 0.0 0.0 0.00 0.59 0.56 96 1015.8
20260831193202 71 360 0.0 0.0 0.00 0.59 0.56 95 1015.8
20260831192202 71 359 0.0 1.0 0.00 0.59 0.56 95 1016.0
20260831191202 71 359 0.0 1.0 0.00 0.59 0.56 95 1016.0
20260831190202 70 360 0.0 2.0 0.00 0.60 0.56 96 1016.1
20260831185202 70 360 0.0 1.0 0.02 0.60 0.56 95 1016.2
20260831184203 70 360 0.0 0.0 0.02 0.60 0.56 95 1016.2
20260831183202 70 359 0.0 3.0 0.00 0.58 0.54 95 1016.3
20260831182202 70 360 0.0 1.0 0.00 0.58 0.54 95 1016.4
20260831181202 70 360 0.0 0.0 0.00 0.58 0.54 95 1016.6
20260831180203 70 360 0.0 0.0 0.00 0.58 0.54 95 1016.5
20260831175203 70 360 0.0 2.0 0.02 0.58 0.54 95 1016.6
20260831174202 70 359 1.0 3.0 0.01 0.57 0.53 95 1016.8
20260831173224 70 360 0.0 0.0 0.01 0.57 0.53 95 1016.6
20260831172205 70 360 0.0 3.0 0.01 0.57 0.53 95 1016.7
20260831171204 70 359 1.0 2.0 0.00 0.56 0.52 95 1016.7
20260831170202 70 359 0.0 2.0 0.00 0.56 0.52 96 1016.8
20260831165203 70 359 0.0 2.0 0.00 0.56 0.52 96 1017.0
20260831164223 70 359 0.0 2.0 0.00 0.56 0.52 96 1017.0
20260831163203 69 360 0.0 2.0 0.00 0.56 0.52 96 1017.0
20260831162202 69 360 0.0 3.0 0.00 0.56 0.52 96 1017.0
20260831161202 68 360 0.0 0.0 0.00 0.56 0.52 95 1017.1
20260831160202 68 360 0.0 0.0 0.00 0.56 0.52 95 1017.3
20260831155203 68 360 0.0 0.0 0.00 0.56 0.52 96 1017.4
20260831154224 67 360 0.0 0.0 0.00 0.56 0.52 95 1017.5
20260831153245 67 360 0.0 0.0 0.00 0.56 0.52 95 1017.5
20260831152202 67 360 0.0 0.0 0.00 0.57 0.52 95 1017.6
20260831151203 67 360 0.0 0.0 0.00 0.57 0.52 95 1017.5
20260831150203 67 360 0.0 0.0 0.00 0.57 0.52 95 1017.4
20260831145202 67 360 0.0 2.0 0.02 0.57 0.52 95 1017.3
20260831144202 67 359 0.0 2.0 0.02 0.57 0.52 95 1017.3
20260831143203 67 360 0.0 1.0 0.02 0.57 0.52 95 1017.3
20260831142202 66 360 0.0 2.0 0.01 0.56 0.51 95 1017.4
20260831141204 67 359 0.0 5.0 0.01 0.56 0.51 95 1017.4
20260831140202 66 360 0.0 0.0 0.00 0.55 0.50 95 1017.5
20260831135203 66 360 0.0 0.0 0.13 0.54 0.49 95 1017.4
20260831134202 66 360 0.0 0.0 0.08 0.49 0.44 95 1017.6
20260831133225 66 360 0.0 5.0 0.07 0.48 0.43 95 1017.6
20260831132202 66 359 1.0 4.0 0.05 0.46 0.41 95 1017.7
20260831131204 66 360 0.0 2.0 0.03 0.44 0.39 95 1017.6
20260831130202 66 359 0.0 1.0 0.00 0.41 0.36 95 1017.7
20260831125202 66 359 0.0 4.0 0.19 0.40 0.35 95 1017.5
20260831124202 66 1 1.0 2.0 0.18 0.39 0.34 95 1017.5
20260831123202 66 359 1.0 2.0 0.13 0.34 0.29 95 1017.5
20260831122202 66 359 0.0 1.0 0.09 0.30 0.25 95 1017.3
20260831121204 66 360 0.0 0.0 0.03 0.24 0.19 95 1017.5
20260831120202 66 360 0.0 1.0 0.00 0.21 0.16 95 1017.3
20260831115202 66 360 0.0 0.0 0.01 0.21 0.16 95 1017.3
20260831114223 66 360 0.0 0.0 0.01 0.21 0.16 95 1017.4
20260831113203 66 360 0.0 0.0 0.01 0.21 0.16 95 1017.4
20260831112203 66 360 0.0 0.0 0.00 0.20 0.15 95 1017.4
20260831111203 66 360 0.0 0.0 0.00 0.20 0.15 95 1017.5
20260831110202 66 360 0.0 0.0 0.00 0.20 0.15 95 1017.6
20260831105202 66 360 0.0 0.0 0.03 0.19 0.14 95 1017.6
20260831104224 66 360 0.0 0.0 0.02 0.18 0.13 95 1017.7
20260831103203 66 360 0.0 0.0 0.02 0.18 0.13 95 1017.7
20260831102205 66 360 0.0 0.0 0.01 0.17 0.12 95 1017.7
20260831101225 66 360 0.0 0.0 0.01 0.17 0.12 95 1017.8
20260831100202 66 360 0.0 1.0 0.00 0.16 0.11 95 1017.8